This is the latest recevied weather packets stored in our database for station/object KK6MIG-13. If no packets are shown the sender has not sent any weather packets the latest 1 day(s).
| Time | Temp. | Humidity | Pressure | Rain* | Wind** | Luminosity | Snow |
|---|---|---|---|---|---|---|---|
| 1778010009 | 15° C | 1% | 1015 hPa | 0.25 mm | 4.02 m/s, 191° | 1067 W/m² | - |
| 1778009949 | 15° C | 1% | 1015.1 hPa | 0.25 mm | 4.02 m/s, 0° | 1011 W/m² | - |
| 1778009888 | 15° C | 1% | 1015 hPa | 0.25 mm | 4.02 m/s, 264° | 1011 W/m² | - |
| 1778009823 | 15° C | 1% | 1015 hPa | 0.25 mm | 4.02 m/s, 226° | 1016 W/m² | - |
| 1778009763 | 15° C | 1% | 1015 hPa | 0.25 mm | 4.02 m/s, 239° | 1044 W/m² | - |
| 1778009702 | 15° C | 1% | 1015.1 hPa | 0.25 mm | 4.02 m/s, 300° | 1005 W/m² | - |
| 1778009642 | 15° C | 1% | 1015 hPa | 0.25 mm | 4.02 m/s, 271° | 1067 W/m² | - |
| 1778009582 | 15° C | 1% | 1015 hPa | 0.25 mm | 4.02 m/s, 286° | 684 W/m² | - |
| 1778009519 | 15° C | 1% | 1015 hPa | 0.25 mm | 4.02 m/s, 246° | 684 W/m² | - |
| 1778009459 | 15° C | 1% | 1015 hPa | 0.25 mm | 3.58 m/s, 261° | 684 W/m² | - |
| 1778009399 | 15° C | 1% | 1015 hPa | 0.25 mm | 4.02 m/s, 242° | 684 W/m² | - |
| 1778009339 | 15° C | 1% | 1015.1 hPa | 0.25 mm | 4.02 m/s, 242° | 684 W/m² | - |
| 1778009281 | 15° C | 1% | 1015.1 hPa | 0 mm | 3.58 m/s, 265° | 902 W/m² | - |
| 1778009277 | 15° C | 1% | 1015.1 hPa | 0 mm | 3.58 m/s, 250° | 763 W/m² | - |
| 1778009153 | 15° C | 1% | 1015 hPa | 0 mm | 3.58 m/s, 221° | 902 W/m² | - |
| 1778009093 | 15° C | 1% | 1015 hPa | 0 mm | 3.58 m/s, 196° | 902 W/m² | - |
| 1778009034 | 15° C | 1% | 1015 hPa | 0 mm | 3.58 m/s, 306° | 868 W/m² | - |
| 1778008973 | 15° C | 1% | 1015.1 hPa | 0 mm | 3.58 m/s, 283° | 821 W/m² | - |
| 1778008913 | 15° C | 1% | 1015 hPa | 0 mm | 3.58 m/s, 250° | 770 W/m² | - |
| 1778008853 | 15° C | 1% | 1015 hPa | 0 mm | 4.02 m/s, 306° | 807 W/m² | - |
| 1778008792 | 15° C | 1% | 1015 hPa | 0 mm | 3.58 m/s, 300° | 800 W/m² | - |
| 1778008733 | 15° C | 1% | 1015 hPa | 0 mm | 3.58 m/s, 262° | 970 W/m² | - |
| 1778008673 | 15° C | 1% | 1015 hPa | 0 mm | 3.58 m/s, 294° | 970 W/m² | - |
| 1778008613 | 15° C | 1% | 1015 hPa | 0 mm | 3.58 m/s, 277° | 1032 W/m² | - |
| 1778008553 | 15° C | 1% | 1015 hPa | 0 mm | 3.13 m/s, 292° | 816 W/m² | - |
* Rain latest hour (hover to see other rain measurements)
** Current wind speed in m/s (hover to see current wind gust speed)